{"data":{"norad_id":56464,"intl_designator":"2023-064S","name":"STARLINK-6043","alt_names":[],"object_type":"PAYLOAD","status":"ACTIVE","operator":null,"country":"US","launch_date":"2023-05-10","launch_site_code":"AFWTR","launch_vehicle":null,"mission":null,"orbit_class":"UNKNOWN","rcs_meters":null,"size_class":null,"mass_kg":null,"dimensions":null,"purposes":["comms"],"wikipedia_slug":null,"has_3d_model":false,"image_url":null,"decayed_at":null,"tle_current":{"epoch":"2026-05-25T04:00:27.320832Z","epoch_age_seconds":57149,"freshness":"FRESH","line1":"1 56464U 23064S   26145.16698288 -.00000742  00000+0 -54365-4 0  9997","line2":"2 56464  69.9997 311.5443 0002990 270.3552  89.7264 14.98323917166704","mean_motion":14.98323917,"eccentricity":0.000299,"inclination_deg":69.9997,"raan_deg":311.5443,"arg_perigee_deg":270.3552,"mean_anomaly_deg":89.7264,"bstar":-5.4365e-5,"rev_number":16670,"period_min":96.107389307595,"perigee_km":569.99658888482,"apogee_km":574.15281548272,"semimajor_km":6950.2117021838,"source":"CELESTRAK","updated_at":"2026-05-25T13:38:18.069492Z"}}}